Year,Month,Day,Hour,Minute,Value (Times are PST for temperature in C)
2012,10,03,00,00,11.30
2012,10,03,00,01,11.30
2012,10,03,00,02,11.30
2012,10,03,00,03,11.30
2012,10,03,00,04,11.30
2012,10,03,00,05,11.30
2012,10,03,00,06,11.30
2012,10,03,00,07,11.30
2012,10,03,00,08,11.30
2012,10,03,00,09,11.30
2012,10,03,00,10,11.30
2012,10,03,00,11,11.30
2012,10,03,00,12,11.30
2012,10,03,00,13,11.30
2012,10,03,00,14,11.30
2012,10,03,00,15,11.30
2012,10,03,00,16,11.30
2012,10,03,00,17,11.30
2012,10,03,00,18,11.20
2012,10,03,00,19,11.20
2012,10,03,00,20,11.20
2012,10,03,00,21,11.20
2012,10,03,00,22,11.20
2012,10,03,00,23,11.20
2012,10,03,00,24,11.20
2012,10,03,00,25,11.20
2012,10,03,00,26,11.30
2012,10,03,00,27,11.30
2012,10,03,00,28,11.30
2012,10,03,00,29,11.30
2012,10,03,00,30,11.30
2012,10,03,00,31,11.30
2012,10,03,00,32,11.30
2012,10,03,00,33,11.40
2012,10,03,00,34,11.40
2012,10,03,00,35,11.40
2012,10,03,00,36,11.40
2012,10,03,00,37,11.40
2012,10,03,00,38,11.40
2012,10,03,00,39,11.30
2012,10,03,00,40,11.30
2012,10,03,00,41,11.30
2012,10,03,00,42,11.30
2012,10,03,00,43,11.30
2012,10,03,00,44,11.30
2012,10,03,00,45,11.30
2012,10,03,00,46,11.20
2012,10,03,00,47,11.20
2012,10,03,00,48,11.20
2012,10,03,00,49,11.20
2012,10,03,00,50,11.20
2012,10,03,00,51,11.20
2012,10,03,00,52,11.20
2012,10,03,00,53,11.20
2012,10,03,00,54,11.20
2012,10,03,00,55,11.10
2012,10,03,00,56,11.10
2012,10,03,00,57,11.10
2012,10,03,00,58,11.10
2012,10,03,00,59,11.10
2012,10,03,01,00,11.10
2012,10,03,01,01,11.10
2012,10,03,01,02,11.10
2012,10,03,01,03,11.00
2012,10,03,01,04,11.00
2012,10,03,01,05,11.00
2012,10,03,01,06,10.90
2012,10,03,01,07,10.90
2012,10,03,01,08,10.90
2012,10,03,01,09,10.90
2012,10,03,01,10,10.90
2012,10,03,01,11,10.90
2012,10,03,01,12,10.90
2012,10,03,01,13,10.90
2012,10,03,01,14,10.90
2012,10,03,01,15,10.90
2012,10,03,01,16,10.90
2012,10,03,01,17,10.80
2012,10,03,01,18,10.80
2012,10,03,01,19,10.80
2012,10,03,01,20,10.80
2012,10,03,01,21,10.80
2012,10,03,01,22,10.70
2012,10,03,01,23,10.70
2012,10,03,01,24,10.70
2012,10,03,01,25,10.70
2012,10,03,01,26,10.70
2012,10,03,01,27,10.70
2012,10,03,01,28,10.80
2012,10,03,01,29,10.80
2012,10,03,01,30,10.80
2012,10,03,01,31,10.80
2012,10,03,01,32,10.90
2012,10,03,01,33,10.90
2012,10,03,01,34,10.90
2012,10,03,01,35,10.90
2012,10,03,01,36,10.90
2012,10,03,01,37,10.90
2012,10,03,01,38,10.90
2012,10,03,01,39,10.90
2012,10,03,01,40,10.90
2012,10,03,01,41,10.90
2012,10,03,01,42,10.80
2012,10,03,01,43,10.80
2012,10,03,01,44,10.80
2012,10,03,01,45,10.80
2012,10,03,01,46,10.80
2012,10,03,01,47,10.80
2012,10,03,01,48,10.80
2012,10,03,01,49,10.80
2012,10,03,01,50,10.80
2012,10,03,01,51,10.80
2012,10,03,01,52,10.90
2012,10,03,01,53,10.90
2012,10,03,01,54,10.90
2012,10,03,01,55,10.90
2012,10,03,01,56,10.90
2012,10,03,01,57,10.90
2012,10,03,01,58,10.90
2012,10,03,01,59,10.90
2012,10,03,02,00,10.90
2012,10,03,02,01,10.90
2012,10,03,02,02,10.90
2012,10,03,02,03,10.90
2012,10,03,02,04,10.90
2012,10,03,02,05,10.90
2012,10,03,02,06,10.90
2012,10,03,02,07,10.90
2012,10,03,02,08,10.90
2012,10,03,02,09,10.90
2012,10,03,02,10,10.90
2012,10,03,02,11,10.90
2012,10,03,02,12,10.90
2012,10,03,02,13,10.80
2012,10,03,02,14,10.80
2012,10,03,02,15,10.80
2012,10,03,02,16,10.80
2012,10,03,02,17,10.80
2012,10,03,02,18,10.70
2012,10,03,02,19,10.70
2012,10,03,02,20,10.70
2012,10,03,02,21,10.70
2012,10,03,02,22,10.70
2012,10,03,02,23,10.70
2012,10,03,02,24,10.70
2012,10,03,02,25,10.70
2012,10,03,02,26,10.70
2012,10,03,02,27,10.70
2012,10,03,02,28,10.70
2012,10,03,02,29,10.70
2012,10,03,02,30,10.70
2012,10,03,02,31,10.70
2012,10,03,02,32,10.70
2012,10,03,02,33,10.70
2012,10,03,02,34,10.70
2012,10,03,02,35,10.70
2012,10,03,02,36,10.70
2012,10,03,02,37,10.70
2012,10,03,02,38,10.70
2012,10,03,02,39,10.70
2012,10,03,02,40,10.70
2012,10,03,02,41,10.70
2012,10,03,02,42,10.70
2012,10,03,02,43,10.70
2012,10,03,02,44,10.70
2012,10,03,02,45,10.60
2012,10,03,02,46,10.60
2012,10,03,02,47,10.60
2012,10,03,02,48,10.60
2012,10,03,02,49,10.60
2012,10,03,02,50,10.60
2012,10,03,02,51,10.60
2012,10,03,02,52,10.60
2012,10,03,02,53,10.60
2012,10,03,02,54,10.60
2012,10,03,02,55,10.60
2012,10,03,02,56,10.60
2012,10,03,02,57,10.60
2012,10,03,02,58,10.60
2012,10,03,02,59,10.60
2012,10,03,03,00,10.60
2012,10,03,03,01,10.60
2012,10,03,03,02,10.60
2012,10,03,03,03,10.60
2012,10,03,03,04,10.60
2012,10,03,03,05,10.60
2012,10,03,03,06,10.60
2012,10,03,03,07,10.60
2012,10,03,03,08,10.60
2012,10,03,03,09,10.60
2012,10,03,03,10,10.60
2012,10,03,03,11,10.60
2012,10,03,03,12,10.60
2012,10,03,03,13,10.60
2012,10,03,03,14,10.50
2012,10,03,03,15,10.50
2012,10,03,03,16,10.60
2012,10,03,03,17,10.60
2012,10,03,03,18,10.60
2012,10,03,03,19,10.60
2012,10,03,03,20,10.60
2012,10,03,03,21,10.60
2012,10,03,03,22,10.60
2012,10,03,03,23,10.60
2012,10,03,03,24,10.60
2012,10,03,03,25,10.50
2012,10,03,03,26,10.40
2012,10,03,03,27,10.40
2012,10,03,03,28,10.40
2012,10,03,03,29,10.40
2012,10,03,03,30,10.40
2012,10,03,03,31,10.40
2012,10,03,03,32,10.40
2012,10,03,03,33,10.40
2012,10,03,03,34,10.40
2012,10,03,03,35,10.40
2012,10,03,03,36,10.40
2012,10,03,03,37,10.40
2012,10,03,03,38,10.40
2012,10,03,03,39,10.40
2012,10,03,03,40,10.40
2012,10,03,03,41,10.40
2012,10,03,03,42,10.40
2012,10,03,03,43,10.40
2012,10,03,03,44,10.40
2012,10,03,03,45,10.40
2012,10,03,03,46,10.40
2012,10,03,03,47,10.50
2012,10,03,03,48,10.60
2012,10,03,03,49,10.60
2012,10,03,03,50,10.60
2012,10,03,03,51,10.60
2012,10,03,03,52,10.60
2012,10,03,03,53,10.60
2012,10,03,03,54,10.60
2012,10,03,03,55,10.60
2012,10,03,03,56,10.60
2012,10,03,03,57,10.60
2012,10,03,03,58,10.60
2012,10,03,03,59,10.60
2012,10,03,04,00,10.60
2012,10,03,04,01,10.70
2012,10,03,04,02,10.60
2012,10,03,04,03,10.60
2012,10,03,04,04,10.60
2012,10,03,04,05,10.60
2012,10,03,04,06,10.60
2012,10,03,04,07,10.60
2012,10,03,04,08,10.60
2012,10,03,04,09,10.60
2012,10,03,04,10,10.60
2012,10,03,04,11,10.60
2012,10,03,04,12,10.60
2012,10,03,04,13,10.60
2012,10,03,04,14,10.60
2012,10,03,04,15,10.60
2012,10,03,04,16,10.60
2012,10,03,04,17,10.60
2012,10,03,04,18,10.60
2012,10,03,04,19,10.50
2012,10,03,04,20,10.40
2012,10,03,04,21,10.40
2012,10,03,04,22,10.40
2012,10,03,04,23,10.40
2012,10,03,04,24,10.40
2012,10,03,04,25,10.40
2012,10,03,04,26,10.40
2012,10,03,04,27,10.40
2012,10,03,04,28,10.40
2012,10,03,04,29,10.40
2012,10,03,04,30,10.30
2012,10,03,04,31,10.30
2012,10,03,04,32,10.30
2012,10,03,04,33,10.30
2012,10,03,04,34,10.30
2012,10,03,04,35,10.30
2012,10,03,04,36,10.20
2012,10,03,04,37,10.20
2012,10,03,04,38,10.30
2012,10,03,04,39,10.30
2012,10,03,04,40,10.30
2012,10,03,04,41,10.30
2012,10,03,04,42,10.30
2012,10,03,04,43,10.30
2012,10,03,04,44,10.30
2012,10,03,04,45,10.20
2012,10,03,04,46,10.30
2012,10,03,04,47,10.30
2012,10,03,04,48,10.20
2012,10,03,04,49,10.20
2012,10,03,04,50,10.20
2012,10,03,04,51,10.20
2012,10,03,04,52,10.20
2012,10,03,04,53,10.20
2012,10,03,04,54,10.10
2012,10,03,04,55,10.10
2012,10,03,04,56,10.10
2012,10,03,04,57,10.10
2012,10,03,04,58,10.10
2012,10,03,04,59,10.10
2012,10,03,05,00,10.10
2012,10,03,05,01,10.10
2012,10,03,05,02,10.10
2012,10,03,05,03,10.10
2012,10,03,05,04,10.10
2012,10,03,05,05,10.10
2012,10,03,05,06,10.10
2012,10,03,05,07,10.10
2012,10,03,05,08,10.10
2012,10,03,05,09,10.10
2012,10,03,05,10,10.10
2012,10,03,05,11,10.10
2012,10,03,05,12,10.10
2012,10,03,05,13,10.10
2012,10,03,05,14,10.10
2012,10,03,05,15,10.10
2012,10,03,05,16,10.10
2012,10,03,05,17,10.10
2012,10,03,05,18,10.10
2012,10,03,05,19,10.10
2012,10,03,05,20,10.10
2012,10,03,05,21,10.10
2012,10,03,05,22,10.10
2012,10,03,05,23,10.10
2012,10,03,05,24,10.10
2012,10,03,05,25,10.10
2012,10,03,05,26,10.10
2012,10,03,05,27,10.10
2012,10,03,05,28,10.10
2012,10,03,05,29,10.10
2012,10,03,05,30,10.10
2012,10,03,05,31,10.10
2012,10,03,05,32,10.10
2012,10,03,05,33,10.10
2012,10,03,05,34,10.10
2012,10,03,05,35,10.10
2012,10,03,05,36,10.10
2012,10,03,05,37,10.10
2012,10,03,05,38,10.10
2012,10,03,05,39,10.00
2012,10,03,05,40,9.90
2012,10,03,05,41,9.90
2012,10,03,05,42,9.90
2012,10,03,05,43,9.90
2012,10,03,05,44,9.90
2012,10,03,05,45,9.90
2012,10,03,05,46,9.90
2012,10,03,05,47,9.90
2012,10,03,05,48,9.90
2012,10,03,05,49,9.90
2012,10,03,05,50,9.90
2012,10,03,05,51,9.90
2012,10,03,05,52,9.90
2012,10,03,05,53,9.90
2012,10,03,05,54,9.90
2012,10,03,05,55,9.90
2012,10,03,05,56,9.90
2012,10,03,05,57,9.90
2012,10,03,05,58,9.90
2012,10,03,05,59,9.90
2012,10,03,06,00,9.90
2012,10,03,06,01,9.90
2012,10,03,06,02,9.90
2012,10,03,06,03,9.90
2012,10,03,06,04,9.90
2012,10,03,06,05,9.90
2012,10,03,06,06,9.90
2012,10,03,06,07,9.90
2012,10,03,06,08,9.90
2012,10,03,06,09,9.90
2012,10,03,06,10,9.90
2012,10,03,06,11,9.90
2012,10,03,06,12,9.90
2012,10,03,06,13,9.90
2012,10,03,06,14,9.90
2012,10,03,06,15,9.90
2012,10,03,06,16,9.90
2012,10,03,06,17,9.90
2012,10,03,06,18,9.90
2012,10,03,06,19,9.90
2012,10,03,06,20,9.90
